(21) Lutetia
ephemeris date magn radius delta ra dec elong phase
Today17 Sep 202512.92.725 AU3.707 AU12h19m+00°15'10.5°3.9°
Opposition29 May 202610.02.317 AU1.304 AU16h29m-20°38'178.3°0.7°
(21) Lutetia - 2025-09-17
astro.vanbuitenen.nl


 
-1 year
-1 month
-1 day
Now
+1 day
+1 month
+1 year

The interactive orbit chart above shows the body's path through the solar system and its position at the given date. Green and blue lines are shown perpendicular to the ecliptic plane: Green if the path is above the ecliptic plane, blue if it is below. (Left-click and drag to rotate the view; Right-click and drag to move the view; Use scroll wheel to zoom in our out.)

The orbital elements of Lutetia are:

            e (Eccentricity)                : 0.1647994
            a (Semimajor axis)              : 2.4338459
            i (Inclination)                 : 3.06457
            Ω (Longitude of ascending node) : 80.83701
            ω (Argument of perihelion)      : 249.97764
            M (Mean anomaly)                : 194.85008
            Epoch                           : 2025 May 05

            L (Longitude of perihelion)     : 150.78826
            B (Latitude of perihelion)      : -2.87918
            P (Orbital period in years)     : 3.80            
        

The light curve chart below shows the estimated development of the minor planet's magnitude.


The all-sky chart below shows the path of the minor planet over the same period as the light curve. The current position is marked yellow.





The following chart shows the path of the minor planet in the next few days. The field of view is optimized for (~10x50) binoculars and finderscopes. A more printer-friendly version of the same chart can be found below.




Ephemerides:
Date       Time       RA (2000)    DEC (2000)    delta   radius  elong  phase   PA    magn
2025-09-17 00:00 UT   12 19 12.1   +00 15 55     3.707    2.725   10.5    3.9   102   12.9 
2025-09-17 08:04 UT   12 19 42.3   +00 12 34     3.708    2.725   10.3    3.8   101   12.9 
2025-09-18 00:00 UT   12 20 42.0   +00 05 58     3.708    2.724   10.0    3.7   101   12.9 
2025-09-19 00:00 UT   12 22 12.1   +00 04 00     3.709    2.723    9.4    3.5   100   12.8 
2025-09-20 00:00 UT   12 23 42.3   +00 13 59     3.710    2.722    8.9    3.3    99   12.8 
2025-09-21 00:00 UT   12 25 12.7   +00 23 57     3.710    2.721    8.3    3.1    98   12.8 
2025-09-22 00:00 UT   12 26 43.1   +00 33 56     3.711    2.720    7.8    2.9    97   12.8 
2025-09-23 00:00 UT   12 28 13.7   +00 43 54     3.711    2.718    7.2    2.7    96   12.8 
2025-09-24 00:00 UT   12 29 44.5   +00 53 53     3.711    2.717    6.7    2.5    95   12.8 
2025-09-25 00:00 UT   12 31 15.3   -01 03 52     3.711    2.716    6.1    2.3    93   12.8 
2025-09-26 00:00 UT   12 32 46.3   -01 13 50     3.711    2.715    5.6    2.1    91   12.7 
2025-09-27 00:00 UT   12 34 17.4   -01 23 49     3.711    2.714    5.1    1.9    89   12.7 
2025-09-28 00:00 UT   12 35 48.6   -01 33 47     3.710    2.713    4.6    1.7    86   12.7 
2025-09-29 00:00 UT   12 37 19.9   -01 43 45     3.710    2.711    4.1    1.5    82   12.7 
2025-09-30 00:00 UT   12 38 51.3   -01 53 43     3.709    2.710    3.6    1.3    77   12.7 
2025-10-01 00:00 UT   12 40 22.9   -02 03 40     3.708    2.709    3.2    1.2    71   12.7 
2025-10-02 00:00 UT   12 41 54.6   -02 13 37     3.707    2.708    2.8    1.0    64   12.7 
2025-10-03 00:00 UT   12 43 26.3   -02 23 34     3.706    2.707    2.4    0.9    53   12.6 
2025-10-04 00:00 UT   12 44 58.2   -02 33 30     3.705    2.706    2.2    0.8    41   12.6 
2025-10-05 00:00 UT   12 46 30.2   -02 43 26     3.704    2.704    2.1    0.8    26   12.6 
2025-10-06 00:00 UT   12 48 02.4   -02 53 22     3.702    2.703    2.1    0.8    10   12.6 
2025-10-07 00:00 UT   12 49 34.6   -03 03 16     3.700    2.702    2.3    0.9   356   12.6 


    Terminology:
            
    delta:  distance between minor planet and earth in AU
    radius: distance between minor planet and sun in AU
    magn:   magnitude (brightness) estimate    
    ra:     right ascension in hours (24h = 360deg)
    dec:    declination in degrees
    elong:  elongation in degrees (angle sun-earth-minor planet)    
    phase:  phase angle in degrees (angle sun-minor planet-earth)        
    AU:     Astronomical Unit (mean distance between earth and sun: 149597870.7 km
    

Orbital elements provided by the MPC (Minor Planet Center).
Calculations by a modified version of AAPlus, a C# implementation of the AA+ project by PJ Naughter from the algorithms presented in the book "Astronomical Algorithms" by Jean Meeus.
NGC2000 dso catalog and star labels from VizieR as provided by the Strasbourg astronomical Data Center.
Tycho2 catalog from the ESO archive.